| time (UTC) | temp F | wind direction | speed MPH | gust MPH | rain 1hr in | rain 24hr in | rain mn in | humidity % | barometer mb |
| 20260905045045 | 67 | 333 | 2.0 | 6.0 | 0.00 | 0.00 | 0.00 | 77 | 1007.2 |
| 20260905044545 | 67 | 321 | 2.0 | 9.0 | 0.00 | 0.00 | 0.00 | 77 | 1007.2 |
| 20260905044044 | 67 | 317 | 4.0 | 9.0 | 0.00 | 0.00 | 0.00 | 77 | 1007.2 |
| 20260905043543 | 67 | 338 | 2.0 | 6.0 | 0.00 | 0.00 | 0.00 | 77 | 1007.1 |
| 20260905043043 | 67 | 298 | 2.0 | 8.0 | 0.00 | 0.00 | 0.00 | 77 | 1007.0 |
| 20260905042546 | 67 | 322 | 1.0 | 10.0 | 0.00 | 0.00 | 0.00 | 77 | 1007.1 |
| 20260905042042 | 67 | 351 | 3.0 | 10.0 | 0.00 | 0.00 | 0.00 | 77 | 1007.1 |
| 20260905041541 | 67 | 299 | 2.0 | 11.0 | 0.00 | 0.00 | 0.00 | 77 | 1007.1 |
| 20260905041039 | 67 | 338 | 4.0 | 9.0 | 0.00 | 0.00 | 0.00 | 76 | 1007.1 |
| 20260905040539 | 67 | 294 | 3.0 | 10.0 | 0.00 | 0.00 | 0.00 | 76 | 1007.1 |
| 20260905040038 | 67 | 311 | 4.0 | 10.0 | 0.00 | 0.00 | 0.00 | 76 | 1007.1 |
| 20260905035537 | 68 | 305 | 4.0 | 10.0 | 0.00 | 0.00 | 0.00 | 76 | 1007.1 |
| 20260905035038 | 68 | 300 | 3.0 | 9.0 | 0.00 | 0.00 | 0.00 | 76 | 1007.2 |
| 20260905034538 | 68 | 309 | 2.0 | 8.0 | 0.00 | 0.00 | 0.00 | 76 | 1007.2 |
| 20260905034037 | 68 | 319 | 1.0 | 9.0 | 0.00 | 0.00 | 0.00 | 75 | 1007.2 |
| 20260905033537 | 68 | 306 | 4.0 | 9.0 | 0.00 | 0.00 | 0.00 | 75 | 1007.2 |
| 20260905033047 | 68 | 323 | 1.0 | 6.0 | 0.00 | 0.00 | 0.00 | 75 | 1007.2 |
| 20260905032538 | 68 | 326 | 2.0 | 10.0 | 0.00 | 0.00 | 0.00 | 75 | 1007.3 |
| 20260905032037 | 68 | 317 | 2.0 | 10.0 | 0.00 | 0.00 | 0.00 | 74 | 1007.3 |
| 20260905031542 | 68 | 314 | 3.0 | 9.0 | 0.00 | 0.00 | 0.00 | 74 | 1007.3 |
| 20260905031037 | 68 | 304 | 2.0 | 9.0 | 0.00 | 0.00 | 0.00 | 74 | 1007.3 |
| 20260905030636 | 69 | 319 | 2.0 | 7.0 | 0.00 | 0.00 | 0.00 | 74 | 1007.3 |
| 20260905030036 | 69 | 311 | 2.0 | 9.0 | 0.00 | 0.00 | 0.00 | 73 | 1007.5 |
| 20260905025539 | 69 | 311 | 3.0 | 10.0 | 0.00 | 0.00 | 0.00 | 73 | 1007.4 |
| 20260905025036 | 69 | 304 | 3.0 | 10.0 | 0.00 | 0.00 | 0.00 | 73 | 1007.3 |
| 20260905024556 | 69 | 9 | 2.0 | 8.0 | 0.00 | 0.00 | 0.00 | 72 | 1007.3 |
| 20260905024038 | 69 | 312 | 3.0 | 8.0 | 0.00 | 0.00 | 0.00 | 72 | 1007.3 |
| 20260905023537 | 69 | 338 | 2.0 | 8.0 | 0.00 | 0.00 | 0.00 | 72 | 1007.3 |
| 20260905023035 | 69 | 313 | 3.0 | 8.0 | 0.00 | 0.00 | 0.00 | 71 | 1007.3 |
| 20260905022534 | 70 | 294 | 2.0 | 9.0 | 0.00 | 0.00 | 0.00 | 71 | 1007.3 |
| 20260905022135 | 70 | 355 | 2.0 | 9.0 | 0.00 | 0.00 | 0.00 | 71 | 1007.5 |
| 20260905021533 | 70 | 300 | 3.0 | 9.0 | 0.00 | 0.00 | 0.00 | 71 | 1007.5 |
| 20260905021033 | 70 | 311 | 2.0 | 9.0 | 0.00 | 0.00 | 0.00 | 70 | 1007.5 |
| 20260905020533 | 70 | 338 | 1.0 | 8.0 | 0.00 | 0.00 | 0.00 | 70 | 1007.5 |
| 20260905020035 | 70 | 325 | 2.0 | 8.0 | 0.00 | 0.00 | 0.00 | 70 | 1007.4 |
| 20260905015533 | 70 | 270 | 2.0 | 6.0 | 0.00 | 0.00 | 0.00 | 69 | 1007.5 |
| 20260905015033 | 70 | 296 | 2.0 | 9.0 | 0.00 | 0.00 | 0.00 | 69 | 1007.5 |
| 20260905014533 | 71 | 279 | 3.0 | 9.0 | 0.00 | 0.00 | 0.00 | 69 | 1007.5 |
| 20260905014034 | 71 | 311 | 4.0 | 9.0 | 0.00 | 0.00 | 0.00 | 69 | 1007.5 |
| 20260905013534 | 71 | 294 | 1.0 | 6.0 | 0.00 | 0.00 | 0.00 | 68 | 1007.6 |
| 20260905013042 | 71 | 320 | 3.0 | 8.0 | 0.00 | 0.00 | 0.00 | 68 | 1007.4 |
| 20260905012532 | 71 | 334 | 3.0 | 8.0 | 0.00 | 0.00 | 0.00 | 68 | 1007.6 |
| 20260905012035 | 71 | 319 | 2.0 | 8.0 | 0.00 | 0.00 | 0.00 | 67 | 1007.5 |
| 20260905011534 | 71 | 329 | 2.0 | 9.0 | 0.00 | 0.00 | 0.00 | 67 | 1007.5 |
| 20260905011031 | 71 | 328 | 4.0 | 9.0 | 0.00 | 0.00 | 0.00 | 67 | 1007.6 |
| 20260905010530 | 72 | 5 | 3.0 | 8.0 | 0.00 | 0.00 | 0.00 | 67 | 1007.6 |
| 20260905010031 | 72 | 302 | 3.0 | 11.0 | 0.00 | 0.00 | 0.00 | 66 | 1007.6 |
| 20260905005530 | 72 | 348 | 3.0 | 11.0 | 0.00 | 0.00 | 0.00 | 66 | 1007.5 |
| 20260905005130 | 72 | 292 | 3.0 | 9.0 | 0.00 | 0.00 | 0.00 | 66 | 1007.4 |
| 20260905004531 | 72 | 307 | 3.0 | 8.0 | 0.00 | 0.00 | 0.00 | 66 | 1007.4 |
| 20260905004029 | 72 | 298 | 3.0 | 9.0 | 0.00 | 0.00 | 0.00 | 65 | 1007.5 |
| 20260905003531 | 72 | 319 | 5.0 | 9.0 | 0.00 | 0.00 | 0.00 | 65 | 1007.5 |
| 20260905003030 | 72 | 308 | 3.0 | 9.0 | 0.00 | 0.00 | 0.00 | 65 | 1007.7 |
| 20260905002529 | 72 | 286 | 3.0 | 8.0 | 0.00 | 0.00 | 0.00 | 65 | 1007.6 |
| 20260905002029 | 72 | 5 | 3.0 | 9.0 | 0.00 | 0.00 | 0.00 | 65 | 1007.6 |
| 20260905001528 | 73 | 316 | 4.0 | 9.0 | 0.00 | 0.00 | 0.00 | 64 | 1007.6 |
| 20260905001029 | 73 | 329 | 1.0 | 9.0 | 0.00 | 0.00 | 0.00 | 64 | 1007.5 |
| 20260905000529 | 73 | 11 | 2.0 | 9.0 | 0.00 | 0.00 | 0.00 | 64 | 1007.3 |
| 20260905000030 | 73 | 300 | 4.0 | 11.0 | 0.00 | 0.00 | 0.00 | 64 | 1007.3 |
| 20260904235528 | 73 | 309 | 6.0 | 12.0 | 0.00 | 0.00 | 0.00 | 63 | 1007.2 |
| 20260904235027 | 73 | 302 | 6.0 | 12.0 | 0.00 | 0.00 | 0.00 | 63 | 1007.2 |
| 20260904234529 | 73 | 346 | 4.0 | 12.0 | 0.00 | 0.00 | 0.00 | 63 | 1007.1 |
| 20260904234031 | 73 | 279 | 7.0 | 12.0 | 0.00 | 0.00 | 0.00 | 63 | 1007.0 |
| 20260904233527 | 73 | 315 | 6.0 | 12.0 | 0.00 | 0.00 | 0.00 | 63 | 1007.0 |
| 20260904233027 | 73 | 355 | 3.0 | 11.0 | 0.00 | 0.00 | 0.00 | 63 | 1007.0 |
| 20260904232527 | 74 | 323 | 5.0 | 11.0 | 0.00 | 0.00 | 0.00 | 63 | 1007.0 |
| 20260904232026 | 74 | 306 | 3.0 | 9.0 | 0.00 | 0.00 | 0.00 | 63 | 1007.0 |
| 20260904231525 | 74 | 290 | 3.0 | 9.0 | 0.00 | 0.00 | 0.00 | 62 | 1007.0 |
| 20260904231026 | 74 | 310 | 4.0 | 10.0 | 0.00 | 0.00 | 0.00 | 62 | 1006.9 |
| 20260904230525 | 74 | 332 | 3.0 | 10.0 | 0.00 | 0.00 | 0.00 | 62 | 1006.9 |
| 20260904230032 | 74 | 316 | 4.0 | 10.0 | 0.00 | 0.00 | 0.00 | 62 | 1006.9 |
| 20260904225526 | 74 | 296 | 2.0 | 10.0 | 0.00 | 0.00 | 0.00 | 61 | 1006.8 |
| 20260904225026 | 74 | 335 | 4.0 | 10.0 | 0.00 | 0.00 | 0.00 | 61 | 1006.8 |
| 20260904224525 | 75 | 321 | 4.0 | 9.0 | 0.00 | 0.00 | 0.00 | 61 | 1006.8 |
| 20260904224025 | 75 | 318 | 3.0 | 8.0 | 0.00 | 0.00 | 0.00 | 61 | 1006.8 |
| 20260904223524 | 75 | 279 | 3.0 | 9.0 | 0.00 | 0.00 | 0.00 | 61 | 1006.8 |
| 20260904223026 | 75 | 297 | 3.0 | 10.0 | 0.00 | 0.00 | 0.00 | 61 | 1006.9 |
| 20260904222527 | 75 | 298 | 5.0 | 11.0 | 0.00 | 0.00 | 0.00 | 60 | 1006.9 |
| 20260904222023 | 75 | 298 | 5.0 | 13.0 | 0.00 | 0.00 | 0.00 | 60 | 1006.9 |
| 20260904221523 | 75 | 317 | 6.0 | 14.0 | 0.00 | 0.00 | 0.00 | 59 | 1006.8 |
| 20260904221024 | 76 | 5 | 5.0 | 16.0 | 0.00 | 0.00 | 0.00 | 59 | 1006.8 |
| 20260904220522 | 76 | 302 | 5.0 | 16.0 | 0.00 | 0.00 | 0.00 | 58 | 1006.9 |
| 20260904220022 | 76 | 315 | 5.0 | 15.0 | 0.00 | 0.00 | 0.00 | 57 | 1006.8 |
| 20260904215522 | 76 | 306 | 5.0 | 12.0 | 0.00 | 0.00 | 0.00 | 57 | 1006.7 |
| 20260904215021 | 76 | 304 | 2.0 | 11.0 | 0.00 | 0.00 | 0.00 | 59 | 1006.7 |
| 20260904214521 | 76 | 345 | 4.0 | 13.0 | 0.00 | 0.00 | 0.00 | 61 | 1006.7 |
| 20260904214024 | 76 | 296 | 3.0 | 16.0 | 0.00 | 0.00 | 0.00 | 62 | 1006.7 |
| 20260904213521 | 76 | 323 | 8.0 | 16.0 | 0.00 | 0.00 | 0.00 | 60 | 1006.7 |
| 20260904213021 | 77 | 317 | 7.0 | 17.0 | 0.00 | 0.00 | 0.00 | 60 | 1006.7 |
| 20260904212521 | 77 | 307 | 9.0 | 17.0 | 0.00 | 0.00 | 0.00 | 59 | 1006.7 |
| 20260904212021 | 77 | 355 | 7.0 | 14.0 | 0.00 | 0.00 | 0.00 | 60 | 1006.8 |
| 20260904211519 | 77 | 294 | 7.0 | 15.0 | 0.00 | 0.00 | 0.00 | 59 | 1006.8 |
| 20260904211022 | 77 | 313 | 7.0 | 19.0 | 0.00 | 0.00 | 0.00 | 59 | 1006.7 |
| 20260904210521 | 77 | 317 | 11.0 | 19.0 | 0.00 | 0.00 | 0.00 | 58 | 1006.7 |
| 20260904210019 | 77 | 348 | 10.0 | 15.0 | 0.00 | 0.00 | 0.00 | 57 | 1006.8 |
| 20260904205519 | 77 | 300 | 7.0 | 15.0 | 0.00 | 0.00 | 0.00 | 58 | 1006.7 |
| 20260904205020 | 77 | 325 | 6.0 | 15.0 | 0.00 | 0.00 | 0.00 | 60 | 1006.6 |
| 20260904204521 | 76 | 300 | 5.0 | 14.0 | 0.00 | 0.00 | 0.00 | 61 | 1006.7 |
| 20260904204017 | 76 | 339 | 5.0 | 11.0 | 0.00 | 0.00 | 0.00 | 64 | 1006.6 |
| 20260904203516 | 75 | 324 | 2.0 | 9.0 | 0.00 | 0.00 | 0.00 | 68 | 1006.6 |
| 20260904203021 | 75 | 328 | 3.0 | 9.0 | 0.00 | 0.00 | 0.00 | 70 | 1006.7 |
| 20260904202516 | 75 | 272 | 1.0 | 4.0 | 0.00 | 0.00 | 0.00 | 74 | 1006.7 |
| 20260904202017 | 74 | 252 | 1.0 | 4.0 | 0.00 | 0.00 | 0.00 | 73 | 1006.6 |
| 20260904201533 | 74 | 259 | 1.0 | 4.0 | 0.00 | 0.00 | 0.00 | 77 | 1006.6 |
| 20260904201015 | 74 | 188 | 1.0 | 4.0 | 0.00 | 0.00 | 0.00 | 77 | 1006.7 |
| 20260904200516 | 74 | 272 | 1.0 | 4.0 | 0.00 | 0.00 | 0.00 | 77 | 1006.8 |
| 20260904200031 | 74 | 269 | 0.0 | 6.0 | 0.00 | 0.00 | 0.00 | 78 | 1006.8 |
| 20260904195514 | 74 | 268 | 1.0 | 6.0 | 0.00 | 0.00 | 0.00 | 78 | 1006.7 |
| 20260904195015 | 74 | 192 | 1.0 | 6.0 | 0.00 | 0.00 | 0.00 | 79 | 1006.7 |
| 20260904194513 | 74 | 275 | 2.0 | 6.0 | 0.00 | 0.00 | 0.00 | 79 | 1006.7 |
| 20260904194013 | 73 | 300 | 1.0 | 3.0 | 0.00 | 0.00 | 0.00 | 80 | 1006.9 |
| 20260904193513 | 73 | 355 | 0.0 | 5.0 | 0.00 | 0.00 | 0.00 | 79 | 1006.8 |
| 20260904193013 | 73 | 355 | 1.0 | 9.0 | 0.00 | 0.00 | 0.00 | 78 | 1007.0 |
| 20260904192516 | 73 | 306 | 4.0 | 9.0 | 0.00 | 0.00 | 0.00 | 76 | 1007.0 |
| 20260904192012 | 73 | 233 | 2.0 | 4.0 | 0.00 | 0.00 | 0.00 | 77 | 1007.2 |
| 20260904191514 | 73 | 267 | 1.0 | 4.0 | 0.00 | 0.00 | 0.00 | 77 | 1007.3 |
| 20260904191011 | 74 | 213 | 1.0 | 5.0 | 0.00 | 0.00 | 0.00 | 76 | 1007.3 |
| 20260904190511 | 74 | 201 | 2.0 | 6.0 | 0.00 | 0.00 | 0.00 | 76 | 1007.2 |
| 20260904190012 | 75 | 169 | 2.0 | 6.0 | 0.00 | 0.00 | 0.00 | 76 | 1007.1 |
| 20260904185511 | 75 | 163 | 1.0 | 3.0 | 0.00 | 0.00 | 0.00 | 76 | 1007.2 |
| 20260904185011 | 76 | 162 | 0.0 | 4.0 | 0.00 | 0.00 | 0.00 | 76 | 1007.1 |
| 20260904184511 | 77 | 146 | 1.0 | 4.0 | 0.00 | 0.00 | 0.00 | 75 | 1007.0 |
| 20260904184014 | 77 | 29 | 0.0 | 3.0 | 0.00 | 0.00 | 0.00 | 74 | 1007.1 |
| 20260904183611 | 77 | 26 | 0.0 | 2.0 | 0.00 | 0.00 | 0.00 | 73 | 1007.0 |
| 20260904183013 | 77 | 10 | 0.0 | 4.0 | 0.00 | 0.00 | 0.00 | 69 | 1007.0 |
| 20260904182510 | 77 | 10 | 0.0 | 4.0 | 0.00 | 0.00 | 0.00 | 71 | 1007.0 |
| 20260904182008 | 77 | 5 | 2.0 | 4.0 | 0.00 | 0.00 | 0.00 | 74 | 1007.0 |
| 20260904181507 | 77 | 355 | 0.0 | 2.0 | 0.00 | 0.00 | 0.00 | 74 | 1007.1 |
| 20260904181007 | 77 | 355 | 0.0 | 2.0 | 0.00 | 0.00 | 0.00 | 72 | 1007.3 |
| 20260904180506 | 77 | 355 | 0.0 | 3.0 | 0.00 | 0.00 | 0.00 | 71 | 1007.3 |
| 20260904180007 | 77 | 355 | 0.0 | 3.0 | 0.00 | 0.00 | 0.00 | 71 | 1007.4 |
| 20260904175508 | 77 | 348 | 1.0 | 4.0 | 0.00 | 0.00 | 0.00 | 69 | 1007.3 |
| 20260904175006 | 78 | 346 | 1.0 | 4.0 | 0.00 | 0.00 | 0.00 | 70 | 1007.2 |
| 20260904174506 | 78 | 332 | 2.0 | 4.0 | 0.00 | 0.00 | 0.00 | 70 | 1007.2 |
| 20260904174005 | 78 | 33 | 2.0 | 4.0 | 0.00 | 0.00 | 0.00 | 73 | 1007.3 |
| 20260904173503 | 77 | 69 | 1.0 | 3.0 | 0.00 | 0.00 | 0.00 | 76 | 1007.4 |
| 20260904173004 | 76 | 79 | 0.0 | 3.0 | 0.00 | 0.00 | 0.00 | 73 | 1007.4 |
| 20260904172503 | 76 | 73 | 1.0 | 4.0 | 0.00 | 0.00 | 0.00 | 76 | 1007.5 |
| 20260904172003 | 75 | 69 | 1.0 | 4.0 | 0.00 | 0.00 | 0.00 | 77 | 1007.6 |
| 20260904171501 | 75 | 65 | 1.0 | 4.0 | 0.00 | 0.00 | 0.00 | 77 | 1007.7 |
| 20260904171000 | 75 | 65 | 1.0 | 4.0 | 0.00 | 0.00 | 0.00 | 77 | 1007.8 |
| 20260904170700 | 75 | 63 | 2.0 | 4.0 | 0.00 | 0.00 | 0.00 | 78 | 1007.8 |
| 20260904170100 | 75 | 53 | 0.0 | 3.0 | 0.00 | 0.00 | 0.00 | 79 | 1007.8 |
| 20260904165600 | 75 | 163 | 0.0 | 5.0 | 0.00 | 0.00 | 0.00 | 77 | 1007.8 |
| 20260904165059 | 75 | 164 | 1.0 | 5.0 | 0.00 | 0.00 | 0.00 | 77 | 1007.8 |
| 20260904164601 | 75 | 140 | 2.0 | 4.0 | 0.00 | 0.00 | 0.00 | 77 | 1008.0 |
| 20260904164059 | 75 | 74 | 2.0 | 4.0 | 0.00 | 0.00 | 0.00 | 76 | 1008.1 |
| 20260904163558 | 76 | 99 | 1.0 | 3.0 | 0.00 | 0.00 | 0.00 | 74 | 1008.2 |
| 20260904163059 | 76 | 96 | 1.0 | 3.0 | 0.00 | 0.00 | 0.00 | 74 | 1008.2 |
| 20260904162557 | 76 | 110 | 0.0 | 6.0 | 0.00 | 0.00 | 0.00 | 73 | 1008.1 |
| 20260904162057 | 77 | 355 | 2.0 | 6.0 | 0.00 | 0.00 | 0.00 | 73 | 1008.4 |
| 20260904161601 | 77 | 32 | 1.0 | 4.0 | 0.00 | 0.00 | 0.00 | 73 | 1008.3 |
| 20260904161055 | 77 | 83 | 1.0 | 4.0 | 0.00 | 0.00 | 0.00 | 75 | 1008.3 |
| 20260904160556 | 77 | 96 | 0.0 | 3.0 | 0.00 | 0.00 | 0.00 | 73 | 1008.5 |
| 20260904160059 | 77 | 98 | 0.0 | 4.0 | 0.00 | 0.01 | 0.00 | 73 | 1008.4 |
| 20260904155558 | 77 | 144 | 1.0 | 4.0 | 0.00 | 0.01 | 0.00 | 73 | 1008.4 |
| 20260904155055 | 77 | 97 | 2.0 | 4.0 | 0.00 | 0.01 | 0.00 | 76 | 1008.4 |
| 20260904154551 | 77 | 55 | 1.0 | 4.0 | 0.00 | 0.01 | 0.00 | 75 | 1008.5 |
| 20260904154053 | 76 | 85 | 1.0 | 4.0 | 0.00 | 0.01 | 0.00 | 75 | 1008.6 |
| 20260904153549 | 76 | 30 | 1.0 | 4.0 | 0.00 | 0.01 | 0.00 | 76 | 1008.7 |
| 20260904153107 | 76 | 21 | 1.0 | 4.0 | 0.00 | 0.01 | 0.00 | 77 | 1008.7 |
| 20260904152546 | 75 | 88 | 1.0 | 4.0 | 0.00 | 0.01 | 0.00 | 78 | 1008.7 |
| 20260904152045 | 75 | 92 | 2.0 | 4.0 | 0.00 | 0.01 | 0.00 | 80 | 1008.8 |
| 20260904151544 | 74 | 132 | 1.0 | 4.0 | 0.00 | 0.01 | 0.00 | 82 | 1008.8 |
| 20260904151042 | 74 | 52 | 1.0 | 4.0 | 0.00 | 0.01 | 0.00 | 82 | 1008.9 |
| 20260904150540 | 73 | 32 | 2.0 | 4.0 | 0.00 | 0.01 | 0.00 | 83 | 1009.0 |
| 20260904150039 | 72 | 72 | 1.0 | 3.0 | 0.00 | 0.03 | 0.00 | 84 | 1008.8 |
| 20260904145538 | 72 | 74 | 1.0 | 3.0 | 0.00 | 0.03 | 0.00 | 87 | 1008.8 |
| 20260904145035 | 71 | 17 | 0.0 | 4.0 | 0.00 | 0.03 | 0.00 | 90 | 1008.9 |
| 20260904144534 | 70 | 15 | 1.0 | 4.0 | 0.00 | 0.03 | 0.00 | 90 | 1008.9 |
| 20260904144034 | 69 | 346 | 1.0 | 4.0 | 0.00 | 0.03 | 0.00 | 92 | 1009.1 |
| 20260904143533 | 69 | 5 | 1.0 | 4.0 | 0.00 | 0.03 | 0.00 | 93 | 1009.0 |
| 20260904143035 | 68 | 355 | 1.0 | 3.0 | 0.00 | 0.03 | 0.00 | 95 | 1009.0 |
| 20260904142529 | 68 | 22 | 1.0 | 5.0 | 0.00 | 0.03 | 0.00 | 96 | 1009.0 |
| 20260904142028 | 67 | 23 | 3.0 | 5.0 | 0.00 | 0.03 | 0.00 | 97 | 1009.1 |
| 20260904141526 | 66 | 341 | 1.0 | 5.0 | 0.00 | 0.03 | 0.00 | 96 | 1009.3 |
| 20260904141024 | 66 | 24 | 1.0 | 5.0 | 0.00 | 0.03 | 0.00 | 96 | 1009.4 |
| 20260904140526 | 65 | 12 | 1.0 | 5.0 | 0.00 | 0.03 | 0.00 | 97 | 1009.3 |
| 20260904140022 | 65 | 26 | 2.0 | 5.0 | 0.00 | 0.03 | 0.00 | 97 | 1009.2 |
| 20260904135522 | 65 | 342 | 2.0 | 5.0 | 0.00 | 0.03 | 0.00 | 97 | 1009.2 |
| 20260904135021 | 65 | 336 | 2.0 | 4.0 | 0.00 | 0.03 | 0.00 | 97 | 1009.1 |
| 20260904134523 | 64 | 360 | 2.0 | 4.0 | 0.00 | 0.03 | 0.00 | 97 | 1009.1 |
| 20260904134020 | 64 | 5 | 1.0 | 4.0 | 0.00 | 0.03 | 0.00 | 97 | 1009.1 |
| 20260904133520 | 64 | 23 | 2.0 | 4.0 | 0.00 | 0.03 | 0.00 | 97 | 1009.2 |
| 20260904133019 | 64 | 5 | 2.0 | 4.0 | 0.00 | 0.03 | 0.00 | 97 | 1009.3 |
| 20260904132523 | 64 | 360 | 1.0 | 4.0 | 0.00 | 0.03 | 0.00 | 97 | 1009.3 |
| 20260904132018 | 64 | 342 | 2.0 | 4.0 | 0.00 | 0.03 | 0.00 | 97 | 1009.3 |
| 20260904131517 | 64 | 25 | 2.0 | 4.0 | 0.00 | 0.03 | 0.00 | 97 | 1009.2 |
| 20260904131016 | 64 | 343 | 1.0 | 5.0 | 0.00 | 0.03 | 0.00 | 97 | 1009.2 |
| 20260904130519 | 64 | 14 | 2.0 | 5.0 | 0.00 | 0.03 | 0.00 | 97 | 1009.2 |
| 20260904130015 | 64 | 19 | 2.0 | 4.0 | 0.00 | 0.04 | 0.00 | 97 | 1009.2 |
| 20260904125514 | 64 | 344 | 2.0 | 5.0 | 0.00 | 0.04 | 0.00 | 97 | 1009.2 |
| 20260904125014 | 64 | 339 | 1.0 | 5.0 | 0.00 | 0.04 | 0.00 | 97 | 1009.2 |
| 20260904124513 | 64 | 355 | 2.0 | 5.0 | 0.00 | 0.04 | 0.00 | 97 | 1009.1 |
| 20260904124014 | 64 | 5 | 2.0 | 4.0 | 0.00 | 0.04 | 0.00 | 97 | 1009.2 |
| 20260904123512 | 64 | 355 | 2.0 | 4.0 | 0.00 | 0.04 | 0.00 | 97 | 1009.1 |
| 20260904123012 | 64 | 313 | 1.0 | 3.0 | 0.00 | 0.04 | 0.00 | 97 | 1009.1 |
| 20260904122515 | 64 | 333 | 1.0 | 3.0 | 0.00 | 0.04 | 0.00 | 97 | 1009.1 |
| 20260904122010 | 64 | 334 | 1.0 | 4.0 | 0.00 | 0.04 | 0.00 | 97 | 1009.2 |
| 20260904121510 | 64 | 331 | 1.0 | 4.0 | 0.00 | 0.04 | 0.00 | 97 | 1009.2 |
| 20260904121008 | 64 | 273 | 1.0 | 2.0 | 0.00 | 0.04 | 0.00 | 97 | 1009.2 |
| 20260904120507 | 63 | 269 | 0.0 | 3.0 | 0.00 | 0.04 | 0.00 | 97 | 1009.2 |
| 20260904120007 | 63 | 269 | 0.0 | 4.0 | 0.00 | 0.04 | 0.00 | 97 | 1009.2 |
| 20260904115506 | 63 | 340 | 1.0 | 4.0 | 0.00 | 0.04 | 0.00 | 97 | 1009.2 |
| 20260904115006 | 63 | 279 | 1.0 | 3.0 | 0.00 | 0.04 | 0.00 | 97 | 1009.2 |
| 20260904114505 | 63 | 266 | 1.0 | 3.0 | 0.00 | 0.04 | 0.00 | 97 | 1009.2 |
| 20260904114008 | 63 | 225 | 0.0 | 2.0 | 0.00 | 0.04 | 0.00 | 97 | 1009.0 |
| 20260904113503 | 63 | 225 | 0.0 | 2.0 | 0.00 | 0.04 | 0.00 | 97 | 1009.1 |
| 20260904113005 | 63 | 224 | 0.0 | 3.0 | 0.00 | 0.04 | 0.00 | 97 | 1009.1 |
| 20260904112502 | 63 | 221 | 1.0 | 4.0 | 0.00 | 0.04 | 0.00 | 97 | 1009.0 |
| 20260904112001 | 63 | 288 | 1.0 | 4.0 | 0.00 | 0.04 | 0.00 | 97 | 1009.0 |
| 20260904111601 | 63 | 311 | 0.0 | 2.0 | 0.00 | 0.04 | 0.00 | 97 | 1009.1 |
| 20260904111059 | 63 | 313 | 0.0 | 2.0 | 0.00 | 0.04 | 0.00 | 97 | 1009.1 |
| 20260904110558 | 63 | 313 | 0.0 | 2.0 | 0.00 | 0.04 | 0.00 | 97 | 1009.1 |
| 20260904110058 | 63 | 309 | 0.0 | 1.0 | 0.00 | 0.06 | 0.00 | 97 | 1009.1 |
| 20260904105558 | 63 | 309 | 0.0 | 1.0 | 0.00 | 0.06 | 0.00 | 97 | 1009.2 |
| 20260904105058 | 63 | 309 | 0.0 | 1.0 | 0.00 | 0.06 | 0.00 | 97 | 1009.0 |
| 20260904104556 | 63 | 309 | 0.0 | 2.0 | 0.00 | 0.06 | 0.00 | 97 | 1009.1 |
| 20260904104055 | 63 | 309 | 0.0 | 2.0 | 0.00 | 0.06 | 0.00 | 97 | 1009.1 |
| 20260904103555 | 63 | 309 | 0.0 | 2.0 | 0.00 | 0.06 | 0.00 | 97 | 1009.0 |
| 20260904103055 | 63 | 309 | 0.0 | 3.0 | 0.00 | 0.06 | 0.00 | 97 | 1008.9 |
| 20260904102555 | 63 | 308 | 0.0 | 3.0 | 0.00 | 0.06 | 0.00 | 97 | 1008.9 |
| 20260904102055 | 63 | 307 | 0.0 | 3.0 | 0.00 | 0.06 | 0.00 | 97 | 1008.9 |
| 20260904101555 | 63 | 308 | 0.0 | 1.0 | 0.00 | 0.06 | 0.00 | 97 | 1008.9 |
| 20260904101056 | 63 | 308 | 0.0 | 1.0 | 0.00 | 0.06 | 0.00 | 97 | 1008.9 |
| 20260904100553 | 63 | 308 | 0.0 | 3.0 | 0.00 | 0.06 | 0.00 | 97 | 1008.9 |
| 20260904100054 | 63 | 308 | 0.0 | 4.0 | 0.00 | 0.07 | 0.00 | 97 | 1008.9 |
| 20260904095654 | 63 | 300 | 0.0 | 4.0 | 0.00 | 0.07 | 0.00 | 97 | 1009.0 |
| 20260904095053 | 63 | 323 | 1.0 | 5.0 | 0.00 | 0.07 | 0.00 | 97 | 1008.9 |
| 20260904094555 | 63 | 325 | 1.0 | 5.0 | 0.00 | 0.07 | 0.00 | 97 | 1008.8 |
| 20260904094053 | 63 | 328 | 1.0 | 5.0 | 0.00 | 0.07 | 0.00 | 97 | 1008.8 |
| 20260904093553 | 63 | 296 | 1.0 | 4.0 | 0.00 | 0.07 | 0.00 | 97 | 1008.7 |
| 20260904093052 | 63 | 290 | 1.0 | 4.0 | 0.00 | 0.07 | 0.00 | 97 | 1008.7 |
| 20260904092552 | 63 | 343 | 0.0 | 3.0 | 0.00 | 0.07 | 0.00 | 97 | 1008.6 |
| 20260904092053 | 63 | 255 | 1.0 | 3.0 | 0.00 | 0.07 | 0.00 | 97 | 1008.6 |
| 20260904091551 | 63 | 254 | 0.0 | 2.0 | 0.00 | 0.07 | 0.00 | 97 | 1008.6 |
| 20260904091050 | 63 | 254 | 0.0 | 3.0 | 0.00 | 0.07 | 0.00 | 97 | 1008.7 |
| 20260904090549 | 63 | 255 | 1.0 | 3.0 | 0.00 | 0.07 | 0.00 | 96 | 1008.6 |
| 20260904090049 | 62 | 250 | 0.0 | 3.0 | 0.00 | 0.07 | 0.00 | 96 | 1008.6 |
| 20260904085549 | 62 | 209 | 0.0 | 2.0 | 0.00 | 0.07 | 0.00 | 96 | 1008.6 |
| 20260904085049 | 62 | 207 | 0.0 | 1.0 | 0.00 | 0.07 | 0.00 | 96 | 1008.7 |
| 20260904084557 | 62 | 207 | 0.0 | 1.0 | 0.00 | 0.07 | 0.00 | 96 | 1008.6 |
| 20260904084053 | 62 | 207 | 0.0 | 2.0 | 0.00 | 0.07 | 0.00 | 96 | 1008.5 |
| 20260904083551 | 62 | 207 | 0.0 | 2.0 | 0.00 | 0.07 | 0.00 | 96 | 1008.4 |
| 20260904083052 | 62 | 207 | 1.0 | 2.0 | 0.00 | 0.07 | 0.00 | 96 | 1008.5 |
| 20260904082549 | 62 | 207 | 0.0 | 2.0 | 0.00 | 0.07 | 0.00 | 96 | 1008.6 |
| 20260904082047 | 62 | 207 | 0.0 | 2.0 | 0.00 | 0.07 | 0.00 | 96 | 1008.8 |
| 20260904081547 | 62 | 207 | 0.0 | 2.0 | 0.00 | 0.07 | 0.00 | 96 | 1008.9 |
| 20260904081046 | 62 | 207 | 0.0 | 2.0 | 0.00 | 0.07 | 0.00 | 96 | 1008.9 |
| 20260904080547 | 62 | 206 | 0.0 | 3.0 | 0.00 | 0.07 | 0.00 | 96 | 1008.8 |
| 20260904075545 | 62 | 201 | 0.0 | 0.0 | 0.00 | 0.07 | 0.00 | 96 | 1008.9 |
| 20260904075045 | 62 | 200 | 0.0 | 0.0 | 0.00 | 0.07 | 0.00 | 96 | 1008.9 |
| 20260904074544 | 62 | 200 | 0.0 | 0.0 | 0.00 | 0.07 | 0.00 | 96 | 1008.9 |
| 20260904074048 | 62 | 200 | 0.0 | 0.0 | 0.00 | 0.07 | 0.00 | 96 | 1009.0 |
| 20260904073544 | 62 | 200 | 0.0 | 0.0 | 0.00 | 0.07 | 0.00 | 96 | 1008.9 |
| 20260904073043 | 62 | 200 | 0.0 | 0.0 | 0.00 | 0.07 | 0.00 | 96 | 1009.1 |
| 20260904072543 | 62 | 200 | 0.0 | 0.0 | 0.00 | 0.07 | 0.00 | 96 | 1009.1 |
| 20260904072042 | 62 | 200 | 0.0 | 0.0 | 0.00 | 0.07 | 0.00 | 96 | 1009.1 |
| 20260904071542 | 62 | 200 | 0.0 | 0.0 | 0.00 | 0.07 | 0.00 | 96 | 1009.2 |
| 20260904071041 | 62 | 200 | 0.0 | 0.0 | 0.00 | 0.07 | 0.00 | 96 | 1009.2 |
| 20260904070541 | 62 | 200 | 0.0 | 0.0 | 0.00 | 0.07 | 0.00 | 96 | 1009.3 |
| 20260904070047 | 62 | 200 | 0.0 | 0.0 | 0.00 | 0.07 | 0.00 | 96 | 1009.3 |
| 20260904065538 | 62 | 200 | 0.0 | 0.0 | 0.00 | 0.07 | 0.00 | 96 | 1009.4 |
| 20260904065039 | 61 | 200 | 0.0 | 0.0 | 0.00 | 0.07 | 0.00 | 96 | 1009.3 |
| 20260904064538 | 61 | 200 | 0.0 | 0.0 | 0.00 | 0.07 | 0.00 | 96 | 1009.4 |
| 20260904064042 | 61 | 200 | 0.0 | 0.0 | 0.00 | 0.07 | 0.00 | 96 | 1009.4 |
| 20260904063537 | 61 | 200 | 0.0 | 0.0 | 0.00 | 0.07 | 0.00 | 96 | 1009.4 |
| 20260904063047 | 61 | 200 | 0.0 | 2.0 | 0.00 | 0.07 | 0.00 | 96 | 1009.6 |
| 20260904062535 | 61 | 200 | 0.0 | 2.0 | 0.00 | 0.07 | 0.00 | 96 | 1009.5 |
| 20260904062038 | 61 | 200 | 0.0 | 0.0 | 0.00 | 0.07 | 0.00 | 96 | 1009.6 |
| 20260904061535 | 61 | 200 | 0.0 | 0.0 | 0.00 | 0.07 | 0.00 | 96 | 1009.6 |
| 20260904061035 | 61 | 200 | 0.0 | 0.0 | 0.00 | 0.07 | 0.00 | 96 | 1009.7 |
| 20260904060533 | 61 | 200 | 0.0 | 0.0 | 0.00 | 0.07 | 0.00 | 96 | 1009.7 |
| 20260904060034 | 61 | 200 | 0.0 | 0.0 | 0.00 | 0.07 | 0.00 | 95 | 1009.8 |
| 20260904055534 | 61 | 200 | 0.0 | 0.0 | 0.00 | 0.07 | 0.00 | 95 | 1009.8 |
| 20260904055031 | 61 | 200 | 0.0 | 0.0 | 0.00 | 0.07 | 0.00 | 96 | 1010.0 |
| 20260904054539 | 61 | 200 | 0.0 | 0.0 | 0.00 | 0.07 | 0.00 | 95 | 1010.1 |
| 20260904054032 | 61 | 200 | 0.0 | 0.0 | 0.00 | 0.07 | 0.00 | 95 | 1010.1 |
| 20260904053530 | 61 | 200 | 0.0 | 0.0 | 0.00 | 0.07 | 0.00 | 95 | 1010.3 |
| 20260904053036 | 61 | 200 | 0.0 | 0.0 | 0.00 | 0.07 | 0.00 | 95 | 1010.4 |
| 20260904052530 | 61 | 200 | 0.0 | 0.0 | 0.00 | 0.07 | 0.00 | 95 | 1010.3 |
| 20260904052029 | 61 | 200 | 0.0 | 0.0 | 0.00 | 0.07 | 0.00 | 95 | 1010.4 |
| 20260904051528 | 60 | 200 | 0.0 | 0.0 | 0.00 | 0.07 | 0.00 | 95 | 1010.4 |
| 20260904051033 | 60 | 200 | 0.0 | 0.0 | 0.00 | 0.07 | 0.00 | 95 | 1010.4 |
| 20260904050528 | 60 | 200 | 0.0 | 2.0 | 0.00 | 0.07 | 0.00 | 95 | 1010.3 |
| 20260904050027 | 61 | 200 | 0.0 | 2.0 | 0.00 | 0.07 | 0.00 | 95 | 1010.4 |
| 20260904045528 | 61 | 200 | 1.0 | 2.0 | 0.00 | 0.07 | 0.00 | 95 | 1010.5 |